RYR82JL EDDH-EGSS

Flight info

Callsign RYR82JL
Flight time 1h 10m
Altitude 36000
Route WSN4B WSN N125 EKNON DCT NOGRO M40 RINIS
Aircraft B738/M-SDE2E3FGHIRWXY/LB1

Departure

Time 2026-05-03 23:25
Airport Hamburg Helmut Schmidt Airport (EDDH)

Arrival

Time 2026-05-04 00:35
Airport London Stansted Airport (EGSS)
Time Latitude Longitude Altitude Speed Heading
2026-05-03 23:15 53.62884 10.00226 49 ft 0 kts 122°
2026-05-03 23:17 53.62888 10.00215 48 ft 4 kts 123°
2026-05-03 23:17 53.62904 10.00179 50 ft 4 kts 126°
2026-05-03 23:17 53.62916 10.00149 50 ft 4 kts 120°
2026-05-03 23:17 53.62922 10.00113 50 ft 4 kts 62°
2026-05-03 23:18 53.62906 10.00087 50 ft 4 kts 33°
2026-05-03 23:18 53.62898 10.00079 48 ft 0 kts 33°
2026-05-03 23:20 53.62913 10.00095 49 ft 7 kts 33°
2026-05-03 23:20 53.62981 10.00170 49 ft 15 kts 33°
2026-05-03 23:20 53.63077 10.00259 50 ft 16 kts
2026-05-03 23:21 53.63184 10.00248 50 ft 15 kts 355°
2026-05-03 23:21 53.63286 10.00235 46 ft 14 kts 355°
2026-05-03 23:21 53.63384 10.00222 50 ft 14 kts 355°
2026-05-03 23:21 53.63467 10.00208 50 ft 8 kts 344°
2026-05-03 23:22 53.63501 10.00168 50 ft 0 kts 322°
2026-05-03 23:23 53.63502 10.00167 50 ft 1 kts 322°
2026-05-03 23:23 53.63519 10.00143 47 ft 7 kts 321°
2026-05-03 23:24 53.63572 10.00072 49 ft 11 kts 321°
2026-05-03 23:24 53.63611 9.99989 48 ft 6 kts 243°
2026-05-03 23:24 53.63608 9.99982 51 ft 0 kts 233°
2026-05-03 23:24 53.63605 9.99977 51 ft 3 kts 233°
2026-05-03 23:25 53.63480 9.99723 47 ft 63 kts 230°
2026-05-03 23:25 53.63048 9.98855 50 ft 128 kts 230°
2026-05-03 23:25 53.62373 9.97485 176 ft 167 kts 231°
2026-05-03 23:25 53.61671 9.95957 996 ft 163 kts 233°
2026-05-03 23:26 53.60987 9.94457 1790 ft 161 kts 231°
2026-05-03 23:26 53.60248 9.92940 2305 ft 181 kts 230°
2026-05-03 23:26 53.59396 9.91250 2690 ft 198 kts 232°
2026-05-03 23:26 53.58509 9.89475 3437 ft 195 kts 234°
2026-05-03 23:27 53.57654 9.87746 4192 ft 195 kts 233°
2026-05-03 23:27 53.56802 9.85954 4853 ft 203 kts 239°
2026-05-03 23:27 53.56227 9.83614 5141 ft 228 kts 250°
2026-05-03 23:27 53.55679 9.81061 5833 ft 235 kts 248°
2026-05-03 23:28 53.55112 9.78470 6693 ft 236 kts 248°
2026-05-03 23:28 53.54540 9.75863 7456 ft 241 kts 247°
2026-05-03 23:28 53.53952 9.73196 8186 ft 245 kts 246°
2026-05-03 23:28 53.53355 9.70500 8954 ft 248 kts 246°
2026-05-03 23:29 53.52750 9.67764 9697 ft 252 kts 246°
2026-05-03 23:29 53.52134 9.64970 10278 ft 262 kts 246°
2026-05-03 23:29 53.51465 9.61956 10444 ft 287 kts 246°
2026-05-03 23:29 53.50740 9.58698 10668 ft 307 kts 246°
2026-05-03 23:30 53.49983 9.55283 11215 ft 316 kts 246°
2026-05-03 23:30 53.49216 9.51812 11926 ft 319 kts 246°
2026-05-03 23:30 53.48438 9.48298 12627 ft 323 kts 246°
2026-05-03 23:30 53.47649 9.44742 13343 ft 327 kts 246°
2026-05-03 23:31 53.46849 9.41150 14049 ft 331 kts 246°
2026-05-03 23:31 53.46034 9.37498 14752 ft 336 kts 246°
2026-05-03 23:31 53.45209 9.33814 15488 ft 339 kts 247°
2026-05-03 23:31 53.44374 9.30099 16188 ft 342 kts 247°
2026-05-03 23:32 53.43526 9.26342 16834 ft 347 kts 247°
2026-05-03 23:32 53.42667 9.22539 17513 ft 350 kts 247°
2026-05-03 23:32 53.41802 9.18710 18170 ft 353 kts 247°
2026-05-03 23:32 53.40925 9.14837 18800 ft 357 kts 247°
2026-05-03 23:33 53.40038 9.10921 19425 ft 360 kts 247°
2026-05-03 23:33 53.39144 9.06983 20040 ft 363 kts 247°
2026-05-03 23:33 53.38241 9.03009 20607 ft 367 kts 246°
2026-05-03 23:33 53.37328 8.99000 21194 ft 370 kts 246°
2026-05-03 23:34 53.36406 8.94954 21760 ft 373 kts 246°
2026-05-03 23:34 53.35476 8.90890 22301 ft 376 kts 246°
2026-05-03 23:34 53.34538 8.86794 22826 ft 379 kts 246°
2026-05-03 23:34 53.33610 8.82649 23344 ft 381 kts 246°
2026-05-03 23:35 53.32688 8.78471 23838 ft 384 kts 246°
2026-05-03 23:35 53.31771 8.74315 24291 ft 387 kts 246°
2026-05-03 23:35 53.30817 8.70019 24773 ft 390 kts 246°
2026-05-03 23:35 53.29868 8.65766 25256 ft 391 kts 246°
2026-05-03 23:36 53.28927 8.61488 25729 ft 393 kts 246°
2026-05-03 23:36 53.28004 8.57246 26173 ft 395 kts 246°
2026-05-03 23:36 53.27061 8.52926 26574 ft 397 kts 246°
2026-05-03 23:36 53.26116 8.48584 26973 ft 399 kts 247°
2026-05-03 23:37 53.25248 8.44169 27403 ft 401 kts 249°
2026-05-03 23:37 53.24424 8.39699 27788 ft 403 kts 249°
2026-05-03 23:37 53.23606 8.35210 28162 ft 406 kts 249°
2026-05-03 23:37 53.22776 8.30708 28536 ft 407 kts 249°
2026-05-03 23:38 53.21932 8.26193 28891 ft 408 kts 248°
2026-05-03 23:38 53.21076 8.21658 29244 ft 410 kts 248°
2026-05-03 23:38 53.20214 8.17118 29593 ft 411 kts 248°
2026-05-03 23:38 53.19346 8.12566 29920 ft 413 kts 248°
2026-05-03 23:39 53.18479 8.08004 30299 ft 412 kts 248°
2026-05-03 23:39 53.17620 8.03451 30760 ft 410 kts 248°
2026-05-03 23:39 53.16769 7.98930 31168 ft 409 kts 248°
2026-05-03 23:39 53.15916 7.94407 31526 ft 409 kts 248°
2026-05-03 23:40 53.15065 7.89909 31951 ft 407 kts 248°
2026-05-03 23:40 53.14211 7.85416 32300 ft 406 kts 248°
2026-05-03 23:40 53.13357 7.80923 32570 ft 407 kts 248°
2026-05-03 23:40 53.12499 7.76429 32865 ft 408 kts 248°
2026-05-03 23:41 53.11637 7.71925 33196 ft 408 kts 248°
2026-05-03 23:41 53.10776 7.67441 33558 ft 406 kts 248°
2026-05-03 23:41 53.09919 7.62980 33882 ft 405 kts 248°
2026-05-03 23:41 53.09057 7.58509 34128 ft 407 kts 248°
2026-05-03 23:42 53.08190 7.54021 34407 ft 406 kts 248°
2026-05-03 23:42 53.07326 7.49555 34726 ft 405 kts 248°
2026-05-03 23:42 53.06466 7.45115 34978 ft 406 kts 248°
2026-05-03 23:42 53.05596 7.40640 35198 ft 407 kts 248°
2026-05-03 23:43 53.04724 7.36160 35417 ft 408 kts 248°
2026-05-03 23:43 53.03861 7.31734 35661 ft 408 kts 248°
2026-05-03 23:43 53.03065 7.27656 35892 ft 408 kts 248°
2026-05-03 23:43 53.02187 7.23174 36102 ft 408 kts 248°
2026-05-03 23:44 53.01301 7.18688 36337 ft 408 kts 248°
2026-05-03 23:44 53.00396 7.14213 36544 ft 409 kts 248°
2026-05-03 23:44 52.99483 7.09742 36777 ft 409 kts 248°
2026-05-03 23:44 52.98569 7.05282 37042 ft 408 kts 248°
2026-05-03 23:45 52.97657 7.00845 37309 ft 406 kts 248°
2026-05-03 23:45 52.96747 6.96417 37547 ft 405 kts 248°
2026-05-03 23:45 52.95836 6.91989 37785 ft 405 kts 248°
2026-05-03 23:45 52.94929 6.87578 37936 ft 405 kts 248°
2026-05-03 23:46 52.93092 6.78687 37927 ft 408 kts 248°
2026-05-03 23:46 52.91258 6.69839 37932 ft 404 kts 248°
2026-05-03 23:47 52.89436 6.61079 37932 ft 401 kts 248°
2026-05-03 23:47 52.87616 6.52375 37936 ft 399 kts 248°
2026-05-03 23:48 52.85796 6.43712 37932 ft 398 kts 248°
2026-05-03 23:48 52.83972 6.35062 37939 ft 399 kts 248°
2026-05-03 23:49 52.82144 6.26388 37940 ft 400 kts 248°
2026-05-03 23:49 52.80309 6.17681 37936 ft 402 kts 248°
2026-05-03 23:50 52.78772 6.10407 37938 ft 404 kts 248°
2026-05-03 23:50 52.76524 6.00189 37943 ft 405 kts 245°
2026-05-03 23:51 52.74270 5.91653 37946 ft 407 kts 243°
2026-05-03 23:51 52.71942 5.83139 37948 ft 408 kts 243°
2026-05-03 23:52 52.69640 5.74650 37939 ft 408 kts 244°
2026-05-03 23:52 52.67334 5.66101 37932 ft 408 kts 244°
2026-05-03 23:53 52.65028 5.57557 37933 ft 407 kts 244°
2026-05-03 23:53 52.62725 5.49052 37931 ft 406 kts 243°
2026-05-03 23:54 52.60421 5.40580 37935 ft 405 kts 243°
2026-05-03 23:54 52.58111 5.32113 37936 ft 404 kts 243°
2026-05-03 23:55 52.55808 5.23697 37935 ft 403 kts 243°
2026-05-03 23:55 52.53521 5.15376 37934 ft 402 kts 243°
2026-05-03 23:56 52.51216 5.07013 37934 ft 402 kts 243°
2026-05-03 23:56 52.48905 4.98663 37936 ft 402 kts 243°
2026-05-03 23:57 52.46586 4.90315 37937 ft 402 kts 243°
2026-05-03 23:57 52.44257 4.81969 37934 ft 403 kts 243°
2026-05-03 23:58 52.41919 4.73612 37936 ft 403 kts 243°
2026-05-03 23:58 52.39572 4.65254 37935 ft 404 kts 243°
2026-05-03 23:59 52.37214 4.56881 37936 ft 406 kts 243°
2026-05-03 23:59 52.34841 4.48491 37935 ft 407 kts 243°
2026-05-04 00:00 52.32458 4.40096 37938 ft 408 kts 243°
2026-05-04 00:00 52.30061 4.31686 37936 ft 408 kts 243°
2026-05-04 00:01 52.27661 4.23285 37936 ft 408 kts 243°
2026-05-04 00:01 52.25255 4.14896 37931 ft 408 kts 243°
2026-05-04 00:02 52.22843 4.06519 37933 ft 407 kts 243°
2026-05-04 00:02 52.20430 3.98169 37932 ft 407 kts 243°
2026-05-04 00:03 52.18015 3.89837 37935 ft 406 kts 243°
2026-05-04 00:03 52.15599 3.81531 37936 ft 406 kts 243°
2026-05-04 00:04 52.13177 3.73236 37935 ft 405 kts 243°
2026-05-04 00:04 52.10779 3.65050 37916 ft 396 kts 243°
2026-05-04 00:05 52.09614 3.61077 37917 ft 382 kts 242°
2026-05-04 00:05 52.08483 3.57228 37912 ft 373 kts 242°
2026-05-04 00:05 52.06224 3.49572 37942 ft 376 kts 242°
2026-05-04 00:06 52.05082 3.45716 37331 ft 397 kts 242°
2026-05-04 00:06 52.03864 3.41611 36631 ft 405 kts 242°
2026-05-04 00:06 52.02638 3.37472 35884 ft 409 kts 242°
2026-05-04 00:06 52.01398 3.33292 35147 ft 413 kts 242°
2026-05-04 00:07 52.00145 3.29076 34409 ft 416 kts 242°
2026-05-04 00:07 51.98881 3.24834 33664 ft 419 kts 242°
2026-05-04 00:07 51.97633 3.20553 32922 ft 421 kts 245°
2026-05-04 00:07 51.96685 3.16033 32176 ft 426 kts 252°
2026-05-04 00:08 51.96123 3.11307 31429 ft 430 kts 260°
2026-05-04 00:08 51.95821 3.06478 30693 ft 430 kts 260°
2026-05-04 00:08 51.95530 3.01650 29945 ft 430 kts 260°
2026-05-04 00:08 51.95233 2.96828 29194 ft 429 kts 260°
2026-05-04 00:09 51.94926 2.92034 28447 ft 427 kts 260°
2026-05-04 00:09 51.94609 2.87255 27697 ft 426 kts 260°
2026-05-04 00:09 51.94287 2.82495 26945 ft 424 kts 260°
2026-05-04 00:09 51.93962 2.77748 26200 ft 422 kts 260°
2026-05-04 00:10 51.93639 2.73042 25457 ft 420 kts 260°
2026-05-04 00:10 51.93320 2.68403 25214 ft 407 kts 260°
2026-05-04 00:10 51.93011 2.63912 24942 ft 396 kts 260°
2026-05-04 00:10 51.92712 2.59541 24681 ft 385 kts 260°
2026-05-04 00:11 51.92419 2.55274 24328 ft 378 kts 260°
2026-05-04 00:11 51.92226 2.52493 24059 ft 374 kts 260°
2026-05-04 00:11 51.91935 2.48320 23622 ft 370 kts 260°
2026-05-04 00:11 51.91648 2.44200 23190 ft 367 kts 260°
2026-05-04 00:12 51.91361 2.40107 22751 ft 364 kts 260°
2026-05-04 00:12 51.91075 2.36061 22325 ft 360 kts 260°
2026-05-04 00:12 51.90791 2.32050 21896 ft 357 kts 260°
2026-05-04 00:12 51.90549 2.28073 21554 ft 352 kts 262°
2026-05-04 00:13 51.90347 2.24143 21212 ft 349 kts 262°
2026-05-04 00:13 51.90156 2.20245 20876 ft 346 kts 262°
2026-05-04 00:13 51.89966 2.16370 20541 ft 344 kts 262°
2026-05-04 00:13 51.89774 2.12532 20209 ft 341 kts 262°
2026-05-04 00:14 51.89578 2.08692 19884 ft 343 kts 262°
2026-05-04 00:14 51.89377 2.04826 19558 ft 346 kts 262°
2026-05-04 00:14 51.89172 2.00947 19211 ft 344 kts 262°
2026-05-04 00:14 51.88969 1.97104 18876 ft 342 kts 262°
2026-05-04 00:15 51.88698 1.92041 18436 ft 340 kts 262°
2026-05-04 00:15 51.88563 1.89521 18219 ft 339 kts 262°
2026-05-04 00:15 51.88357 1.85731 17891 ft 337 kts 262°
2026-05-04 00:15 51.88151 1.81959 17565 ft 336 kts 262°
2026-05-04 00:16 51.87944 1.78199 17232 ft 335 kts 262°
2026-05-04 00:16 51.87737 1.74449 16916 ft 334 kts 262°
2026-05-04 00:16 51.87529 1.70718 16592 ft 333 kts 262°
2026-05-04 00:16 51.87320 1.66993 16269 ft 332 kts 262°
2026-05-04 00:17 51.87111 1.63279 15948 ft 331 kts 262°
2026-05-04 00:17 51.86902 1.59580 15626 ft 330 kts 262°
2026-05-04 00:17 51.86691 1.55888 15314 ft 329 kts 262°
2026-05-04 00:17 51.86481 1.52210 14989 ft 328 kts 262°
2026-05-04 00:18 51.86270 1.48540 14670 ft 327 kts 263°
2026-05-04 00:18 51.86058 1.44884 14353 ft 326 kts 263°
2026-05-04 00:18 51.85846 1.41241 14038 ft 325 kts 263°
2026-05-04 00:18 51.85633 1.37607 13716 ft 324 kts 263°
2026-05-04 00:19 51.85420 1.33987 13409 ft 323 kts 263°
2026-05-04 00:19 51.85207 1.30379 13088 ft 322 kts 263°
2026-05-04 00:19 51.84993 1.26782 12784 ft 321 kts 263°
2026-05-04 00:19 51.84779 1.23189 12472 ft 320 kts 263°
2026-05-04 00:20 51.84564 1.19615 12163 ft 319 kts 263°
2026-05-04 00:20 51.84348 1.16046 11854 ft 318 kts 263°
2026-05-04 00:20 51.84132 1.12488 11545 ft 318 kts 263°
2026-05-04 00:20 51.83915 1.08931 11237 ft 317 kts 263°
2026-05-04 00:21 51.83622 1.05411 10909 ft 315 kts 255°
2026-05-04 00:21 51.83046 1.02029 10617 ft 309 kts 252°
2026-05-04 00:21 51.82420 0.98729 10318 ft 305 kts 251°
2026-05-04 00:21 51.81790 0.95478 10031 ft 301 kts 251°
2026-05-04 00:22 51.81165 0.92284 9878 ft 293 kts 251°
2026-05-04 00:22 51.80563 0.89225 9859 ft 280 kts 251°
2026-05-04 00:22 51.79986 0.86293 9792 ft 270 kts 251°
2026-05-04 00:22 51.79420 0.83428 9585 ft 266 kts 251°
2026-05-04 00:23 51.78861 0.80593 9315 ft 264 kts 251°
2026-05-04 00:23 51.78300 0.77764 8992 ft 265 kts 251°
2026-05-04 00:23 51.77738 0.74935 8705 ft 264 kts 251°
2026-05-04 00:23 51.77176 0.72127 8432 ft 263 kts 251°
2026-05-04 00:24 51.76612 0.69320 8140 ft 262 kts 251°
2026-05-04 00:24 51.76047 0.66528 7849 ft 262 kts 251°
2026-05-04 00:24 51.75481 0.63744 7583 ft 260 kts 251°
2026-05-04 00:24 51.74916 0.60975 7315 ft 259 kts 251°
2026-05-04 00:25 51.74360 0.58259 7048 ft 258 kts 251°
2026-05-04 00:25 51.73800 0.55523 6771 ft 256 kts 251°
2026-05-04 00:25 51.73238 0.52791 6416 ft 259 kts 251°
2026-05-04 00:25 51.72669 0.50045 6171 ft 257 kts 251°
2026-05-04 00:26 51.72104 0.47328 5923 ft 254 kts 251°
2026-05-04 00:26 51.71544 0.44649 5754 ft 249 kts 251°
2026-05-04 00:26 51.70995 0.42027 5572 ft 245 kts 251°
2026-05-04 00:26 51.70453 0.39453 5388 ft 241 kts 251°
2026-05-04 00:27 51.69921 0.36923 5221 ft 236 kts 251°
2026-05-04 00:27 51.69395 0.34444 5047 ft 231 kts 251°
2026-05-04 00:27 51.68874 0.32017 4897 ft 227 kts 251°
2026-05-04 00:27 51.68366 0.29640 4771 ft 221 kts 251°
2026-05-04 00:28 51.67868 0.27321 4650 ft 218 kts 251°
2026-05-04 00:28 51.67383 0.25068 4570 ft 207 kts 251°
2026-05-04 00:28 51.66924 0.22946 4484 ft 197 kts 251°
2026-05-04 00:28 51.66473 0.20867 4433 ft 196 kts 251°
2026-05-04 00:29 51.66029 0.18794 4368 ft 195 kts 255°
2026-05-04 00:29 51.66051 0.16653 4336 ft 193 kts 291°
2026-05-04 00:29 51.66807 0.14871 4294 ft 195 kts 309°
2026-05-04 00:29 51.67719 0.13207 4161 ft 200 kts 311°
2026-05-04 00:30 51.68656 0.11522 4027 ft 202 kts 311°
2026-05-04 00:30 51.69585 0.09847 3903 ft 199 kts 311°
2026-05-04 00:30 51.70496 0.08205 3803 ft 194 kts 311°
2026-05-04 00:30 51.71394 0.06591 3733 ft 193 kts 311°
2026-05-04 00:31 51.72288 0.04976 3678 ft 193 kts 311°
2026-05-04 00:31 51.73221 0.03437 3634 ft 192 kts 324°
2026-05-04 00:31 51.74484 0.02863 3622 ft 196 kts
2026-05-04 00:31 51.75659 0.03881 3611 ft 201 kts 48°
2026-05-04 00:32 51.76600 0.05609 3285 ft 207 kts 41°
2026-05-04 00:32 51.77694 0.07107 3012 ft 202 kts 41°
2026-05-04 00:32 51.78682 0.08651 2750 ft 198 kts 43°
2026-05-04 00:32 51.79683 0.10196 2482 ft 195 kts 42°
2026-05-04 00:33 51.80652 0.11660 2228 ft 192 kts 42°
2026-05-04 00:33 51.82559 0.14536 1729 ft 180 kts 41°
2026-05-04 00:33 51.83439 0.15863 1536 ft 164 kts 41°
2026-05-04 00:34 51.84245 0.17078 1292 ft 154 kts 41°
2026-05-04 00:34 51.85014 0.18236 1087 ft 150 kts 42°
2026-05-04 00:34 51.85779 0.19389 901 ft 151 kts 40°
2026-05-04 00:34 51.86552 0.20552 689 ft 152 kts 41°
2026-05-04 00:35 51.87305 0.21691 456 ft 145 kts 43°
2026-05-04 00:35 51.88036 0.22784 331 ft 137 kts 41°
2026-05-04 00:35 51.88579 0.23597 347 ft 76 kts 43°
2026-05-04 00:35 51.88802 0.23954 338 ft 15 kts 53°
2026-05-04 00:36 51.88839 0.24046 343 ft 9 kts 60°
2026-05-04 00:36 51.88866 0.24143 353 ft 10 kts 70°
2026-05-04 00:36 51.88890 0.24268 347 ft 14 kts 73°
2026-05-04 00:36 51.88919 0.24422 353 ft 14 kts 76°
2026-05-04 00:37 51.88882 0.24557 355 ft 13 kts 132°
2026-05-04 00:37 51.88822 0.24668 351 ft 13 kts 116°
2026-05-04 00:37 51.88853 0.24795 351 ft 13 kts 47°
2026-05-04 00:37 51.88927 0.24903 356 ft 15 kts 43°
2026-05-04 00:38 51.88999 0.25012 354 ft 14 kts 43°
2026-05-04 00:38 51.89069 0.25116 355 ft 13 kts 43°
2026-05-04 00:38 51.89135 0.25215 356 ft 13 kts 43°
2026-05-04 00:38 51.89200 0.25313 354 ft 13 kts 43°
2026-05-04 00:39 51.89263 0.25407 359 ft 12 kts 43°
2026-05-04 00:39 51.89324 0.25499 354 ft 12 kts 43°
2026-05-04 00:39 51.89367 0.25604 351 ft 12 kts 96°
2026-05-04 00:39 51.89317 0.25702 351 ft 10 kts 132°
2026-05-04 00:40 51.89323 0.25755 351 ft 5 kts 43°
2026-05-04 00:40 51.89341 0.25782 351 ft 0 kts 43°
2026-05-04 00:40 51.89346 0.25790 351 ft 3 kts 43°